Погода в Удонтхани

Таиланд     17°24′25″N   102°47′25″E
темп.,
°C
ветер,
м/с
пор.,
м/с
влажн.,
%
обл.,
%
осадки,
мм/ч
давл.,
гПа
погр.,
м
15 августа, пн
пн1501:00+25в0187100 0.0 100711
04:00+23з249389 2.1 1007104
07:00+23зюз2493100 4.9 1008132
10:00+24зюз2591100 0.4 1008212
13:00+27з467565 0.4 1006530
16:00+28з457145 0.0 1004639
19:00+25зюз228899 0.0 100541
22:00+24ююз2390100 0.1 100748
16 августа, вт
вт1601:00+24юз1191100 0.6 100611
04:00+24вюв119199 0.2 100511
07:00+24вюв129099 0.2 1007111
10:00+27в227974 0.1 1008671
13:00+31ссв116287 1.6 10041280
16:00+30вюв236823 2.9 10031011
19:00+27вюв33805 3.1 100445
22:00+25юв388830 0.1 1007196
17 августа, ср
ср1701:00+24юв369263 0.2 1006166
04:00+23юв359598 0.1 1005164
07:00+24юв2491100 0.1 1007223
10:00+28юв3474100 0.1 1007948
13:00+31ююв346164 0.4 10041467
16:00+30ююв3569100 0.1 1002393
19:00+27юв36795 0.3 1004115
22:00+26юв368486 0.4 1006115
18 августа, чт
чт1801:00+24юв2494100 2.4 1005111
04:00+24вюв119443 2.3 100424
07:00+25в229056 2.3 1005148
10:00+29вюв227412 2.4 1006665
13:00+32юв226153 3.9 10031423
16:00+32ююв116397 0.1 10011174
19:00+28ююв2276100 0.4 100241
22:00+27ю228285 0.1 100546
19 августа, пт
пт1901:00+26ююв228567 0.6 100326
04:00+26ююз1187100 0.3 100314
07:00+26с11865 0.3 1004122
10:00+30ссв227018 1.1 1004854
13:00+33сз126139 3.9 10021411
16:00+33юз016192 0.3 10001045
19:00+29ююз1177100 0.6 100212
22:00+27зюз3486100 0.5 100368